Location: Igloolik
(69.3800°N, 81.8000°W)
Time: 10:02:02
(UTC-05:00)

Amateur Radio Satellites - All Passes

Search period start: 30 July 2016 09:32
Search period end: 31 July 2016 09:32
Location: Igloolik, 69.3800°N, 81.8000°W

Satellite Date Start Highest point End Downlink Frequencies (MHz)
Time Altitude Azimuth
UNISAT 6 30 Jul 09:35:45 09:40:26 62° 254° (WSW) 09:45:09 437.425
NOAA 15 30 Jul 09:38:07 09:42:59 39° 322° (NW) 09:47:51 137.62
AUBIESAT-1 30 Jul 09:40:16 09:42:56 15° 87° (E) 09:45:38 437.475
DELFI C3 30 Jul 09:40:31 09:43:54 26° 91° (E) 09:47:16 145.870
BRITE-PL 30 Jul 09:41:58 09:45:49 28° 324° (NW) 09:49:55 437.365/2234.400
AAUSAT CUBESAT 2 30 Jul 09:46:53 09:51:02 71° 109° (ESE) 09:55:09 437.432
CINEMA 3 30 Jul 09:47:38 09:52:38 72° 299° (WNW) 09:57:41 145.822/145.860
FUNcube-1 30 Jul 09:51:37 09:56:03 47° 100° (E) 10:00:22 145.935
ZACube-1 30 Jul 09:54:31 09:59:01 50° 101° (E) 10:03:23 437.345
NANOSAT C BR1 30 Jul 10:01:18 10:05:35 77° 62° (ENE) 10:09:54 145.865
DOVE 4 30 Jul 10:01:28 10:06:07 41° 314° (NW) 10:10:59 437.250
UWE-3 30 Jul 10:01:52 10:06:34 68° 107° (ESE) 10:11:09 435.000/436.395/437.385
HO-68 30 Jul 10:03:18 10:10:35 89° 128° (SE) 10:17:49 435.675
DUCHIFAT 1 30 Jul 10:03:52 10:08:08 77° 62° (ENE) 10:12:26 145.980
BUGSAT 1 30 Jul 10:04:00 10:08:06 53° 55° (NE) 10:12:15 437.445
CANX-2 30 Jul 10:07:00 10:11:11 56° 303° (WNW) 10:15:20 2200.000
AO-7 30 Jul 10:09:29 10:17:22 48° 4° (N) 10:25:15 29.400- 29.500
SO-50 30 Jul 10:10:44 10:15:15 41° 160° (SSE) 10:19:42 436.795
ANTELSAT 30 Jul 10:14:37 10:19:05 40° 263° (W) 10:23:35 437.575/2403.000
CUTE 1.7 + AOD 2 30 Jul 10:19:46 10:23:54 52° 305° (NW) 10:28:01 437.475
QB50P1 30 Jul 10:25:52 10:30:10 79° 249° (WSW) 10:34:31 145.935-145.965
GOMX 1 30 Jul 10:26:14 10:30:17 28° 327° (NNW) 10:34:32 467.674
Oscar 11 30 Jul 10:29:31 10:33:53 75° 111° (ESE) 10:38:13 145.826/435.025
CUBEBUG 1 30 Jul 10:29:47 10:31:54 13° 75° (ENE) 10:34:00 437.445
CUBEBUG 2 30 Jul 10:31:28 10:36:16 75° 299° (WNW) 10:41:00 437.445
POPSAT HIP 1 30 Jul 10:32:42 10:37:00 74° 249° (WSW) 10:41:21 437.405
NOAA 18 30 Jul 10:34:33 10:39:34 35° 332° (NNW) 10:44:32 137.9125
ESTCUBE 1 30 Jul 10:35:42 10:38:44 17° 80° (E) 10:41:44 437.505/2401.250
VELOX 1 30 Jul 10:37:49 10:40:00 13° 75° (ENE) 10:42:12 145.980
HUMSAT D 30 Jul 10:38:37 10:42:38 39° 98° (E) 10:46:35 437.325/437.525
Oscar 19 30 Jul 10:39:02 10:43:55 45° 44° (NE) 10:48:50 437.125/150
Cosmos 2504 30 Jul 10:42:23 10:51:08 67° 98° (E) 10:59:32 435.465 / 435.565
ITAMSAT 1 30 Jul 10:42:51 10:47:17 29° 24° (NNE) 10:51:42 435.822/435.867
Cubesat XI-IV 30 Jul 10:46:36 10:51:13 30° 335° (NNW) 10:55:50 437.490
Gurwin Techsat 1B 30 Jul 10:48:08 10:53:02 38° 38° (NE) 10:57:57 435.225
AIST 1 30 Jul 10:51:01 10:51:54 11° 67° (ENE) 10:52:46
M-CUBED/EXP-1 PRIME 30 Jul 10:51:03 10:55:20 36° 106° (ESE) 10:59:42 437.505
LilacSat-2 30 Jul 10:52:33 10:55:01 16° 338° (NNW) 10:57:29 437.200
SEEDS 30 Jul 10:52:34 10:56:33 42° 309° (NW) 11:00:30 437.485
JAS-2 30 Jul 10:52:58 10:58:24 84° 61° (ENE) 11:03:38 435.910
QB50P2 30 Jul 10:54:47 10:59:00 54° 256° (WSW) 11:03:16 145.880/145.840
TIGRISAT 30 Jul 10:56:09 11:00:10 27° 272° (W) 11:04:11 435.000
POLYITAN 1 30 Jul 10:57:25 11:01:39 54° 256° (WSW) 11:05:55 437.675
COMPASS 1 30 Jul 10:57:42 11:01:41 46° 307° (NW) 11:05:40 437.405
HORYU 2 30 Jul 11:03:13 11:06:18 18° 359° (N) 11:09:23 437.375
CUSAT 1 30 Jul 11:05:06 11:06:59 17° 38° (NE) 11:08:59 437.405
CUTE-I 30 Jul 11:09:04 11:13:33 28° 340° (NNW) 11:18:00 437.470
DX 1 30 Jul 11:10:01 11:12:46 16° 80° (E) 11:15:30 434.975-435.025
YUBILEINY 30 Jul 11:12:33 11:21:24 71° 302° (WNW) 11:30:18 435.215
AUBIESAT-1 30 Jul 11:14:07 11:18:30 41° 109° (ESE) 11:22:56 437.475
UNISAT 6 30 Jul 11:14:24 11:18:03 22° 277° (W) 11:21:43 437.425
DELFI C3 30 Jul 11:15:17 11:19:16 90° 92° (E) 11:23:14 145.870
UKube-1 30 Jul 11:17:01 11:19:37 15° 79° (E) 11:22:14 .
NOAA 15 30 Jul 11:17:36 11:21:52 26° 346° (NNW) 11:26:08 137.62
BRITE-PL 30 Jul 11:20:15 11:23:17 18° 348° (NNW) 11:26:28 437.365/2234.400
AISAT 30 Jul 11:22:30 11:26:04 23° 87° (E) 11:29:38 437.250
AAUSAT CUBESAT 2 30 Jul 11:22:33 11:26:25 39° 311° (NW) 11:30:16 437.432
CINEMA 3 30 Jul 11:24:53 11:29:19 33° 322° (NW) 11:33:47 145.822/145.860
Cosmos 2491 30 Jul 11:24:56 11:31:03 22° 304° (NW) 11:37:12 435.465 / 435.565
RS-15 30 Jul 11:26:08 11:38:06 72° 187° (S) 11:50:23 29.354- 29.394
FUNcube-1 30 Jul 11:27:59 11:32:30 60° 303° (WNW) 11:36:55 145.935
ZACube-1 30 Jul 11:30:57 11:35:27 57° 304° (NW) 11:39:51 437.345
GONETS M04 30 Jul 11:34:31 11:39:27 17° 45° (NE) 11:44:25
NANOSAT C BR1 30 Jul 11:37:49 11:41:43 34° 265° (W) 11:45:41 145.865
UWE-3 30 Jul 11:38:29 11:42:59 45° 310° (NW) 11:47:22 435.000/436.395/437.385
DOVE 4 30 Jul 11:39:07 11:42:59 24° 337° (NNW) 11:46:59 437.250
BUGSAT 1 30 Jul 11:39:31 11:43:36 49° 257° (WSW) 11:47:45 437.445
50 SAT 30 Jul 11:39:47 11:42:46 23° 91° (E) 11:45:44 437.505
DUCHIFAT 1 30 Jul 11:40:19 11:44:13 34° 265° (W) 11:48:10 145.980
CANX-2 30 Jul 11:43:02 11:46:30 25° 326° (NW) 11:49:55 2200.000
SPROUT 30 Jul 11:43:03 11:46:18 20° 84° (E) 11:49:32 437.525
Cosmos 2499 30 Jul 11:45:36 11:49:46 15° 44° (NE) 11:53:50 435.465 / 435.565
SO-50 30 Jul 11:50:38 11:55:16 48° 183° (S) 11:59:48 436.795
HO-68 30 Jul 11:51:07 11:58:04 52° 326° (NW) 12:04:59 435.675
ANTELSAT 30 Jul 11:54:28 11:57:04 14° 286° (WNW) 11:59:40 437.575/2403.000
CUTE 1.7 + AOD 2 30 Jul 11:55:45 11:59:09 23° 327° (NNW) 12:02:30 437.475
AO-7 30 Jul 12:01:07 12:09:18 60° 31° (NNE) 12:17:28 29.400- 29.500
DANDE 30 Jul 12:01:22 12:03:29 19° 38° (NE) 12:05:28 436.750
QB50P1 30 Jul 12:03:01 12:06:36 25° 271° (W) 12:10:12 145.935-145.965
GOMX 1 30 Jul 12:03:58 12:07:17 19° 350° (N) 12:10:44 467.674
CUBEBUG 1 30 Jul 12:05:15 12:09:24 39° 98° (E) 12:13:34 437.445
Oscar 11 30 Jul 12:05:50 12:09:53 39° 312° (NW) 12:13:55 145.826/435.025
CUBEBUG 2 30 Jul 12:08:14 12:12:29 32° 321° (NW) 12:16:41 437.445
POPSAT HIP 1 30 Jul 12:10:00 12:13:30 23° 273° (W) 12:17:00 437.405
ESTCUBE 1 30 Jul 12:12:09 12:16:33 51° 103° (ESE) 12:20:58 437.505/2401.250
VELOX 1 30 Jul 12:13:31 12:17:43 39° 98° (E) 12:21:55 145.980
HUMSAT D 30 Jul 12:14:18 12:18:33 66° 301° (WNW) 12:22:43 437.325/437.525
NOAA 18 30 Jul 12:14:36 12:19:11 27° 356° (N) 12:23:45 137.9125
Oscar 19 30 Jul 12:17:58 12:23:07 78° 247° (WSW) 12:28:20 437.125/150
ITAMSAT 1 30 Jul 12:20:59 12:26:02 51° 48° (NE) 12:31:07 435.822/435.867
AIST 1 30 Jul 12:24:30 12:28:19 32° 91° (E) 12:32:10
TISAT 1 30 Jul 12:25:35 12:28:19 16° 80° (E) 12:31:02 437.305
M-CUBED/EXP-1 PRIME 30 Jul 12:25:39 12:30:16 87° 312° (NW) 12:35:02 437.505
Cubesat XI-IV 30 Jul 12:25:56 12:30:11 24° 359° (N) 12:34:25 437.490
LilacSat-2 30 Jul 12:26:18 12:28:08 13° 0° (N) 12:29:58 437.200
Gurwin Techsat 1B 30 Jul 12:27:18 12:32:38 82° 63° (ENE) 12:38:01 435.225
SEEDS 30 Jul 12:28:24 12:31:32 21° 332° (NNW) 12:34:39 437.485
QB50P2 30 Jul 12:32:48 12:35:45 18° 279° (W) 12:38:43 145.880/145.840
COMPASS 1 30 Jul 12:33:26 12:36:36 21° 330° (NNW) 12:39:46 437.405
POLYITAN 1 30 Jul 12:35:27 12:38:24 18° 279° (W) 12:41:22 437.675
Cosmos 2504 30 Jul 12:35:59 12:44:50 66° 305° (NW) 12:53:16 435.465 / 435.565
HORYU 2 30 Jul 12:38:15 12:41:44 22° 22° (NNE) 12:45:13 437.375
JAS-2 30 Jul 12:39:08 12:44:09 36° 266° (W) 12:48:57 435.910
DX 1 30 Jul 12:45:44 12:50:01 48° 103° (ESE) 12:54:16 434.975-435.025
CUSAT 1 30 Jul 12:46:48 12:49:28 69° 62° (ENE) 12:52:30 437.405
CUTE-I 30 Jul 12:48:11 12:52:26 24° 5° (N) 12:56:40 437.470
AUBIESAT-1 30 Jul 12:48:41 12:53:16 76° 310° (NW) 12:57:56 437.475
DELFI C3 30 Jul 12:50:21 12:53:52 31° 315° (NW) 12:57:23 145.870
UKube-1 30 Jul 12:52:32 12:56:44 46° 102° (ESE) 13:00:56 .
BEESAT 30 Jul 12:53:25 12:54:59 11° 70° (ENE) 12:56:34 436.000
NOAA 15 30 Jul 12:56:17 13:00:29 25° 10° (N) 13:04:40 137.62
BRITE-PL 30 Jul 12:57:34 13:00:33 18° 12° (NNE) 13:03:39 437.365/2234.400
AAUSAT CUBESAT 2 30 Jul 12:58:10 13:01:09 20° 334° (NNW) 13:04:08 437.432
AISAT 30 Jul 12:58:51 13:03:19 69° 109° (ESE) 13:07:47 437.250
CINEMA 3 30 Jul 13:01:45 13:05:26 21° 345° (NNW) 13:09:09 145.822/145.860
FUNcube-1 30 Jul 13:04:20 13:08:11 27° 326° (NW) 13:11:58 145.935
ZACube-1 30 Jul 13:07:20 13:11:08 26° 327° (NNW) 13:14:54 437.345
YUBILEINY 30 Jul 13:11:26 13:19:47 43° 331° (NNW) 13:28:10 435.215
50 SAT 30 Jul 13:13:15 13:16:54 88° 116° (ESE) 13:20:32 437.505
UWE-3 30 Jul 13:14:58 13:18:41 24° 333° (NNW) 13:22:20 435.000/436.395/437.385
DOVE 4 30 Jul 13:16:03 13:19:27 19° 0° (N) 13:22:59 437.250
BUGSAT 1 30 Jul 13:17:20 13:19:59 16° 280° (W) 13:22:39 437.445
NANOSAT C BR1 30 Jul 13:17:24 13:18:46 11° 288° (WNW) 13:20:09 145.865
ITUPSAT 1 30 Jul 13:18:19 13:21:05 15° 76° (ENE) 13:23:50 437.325
CANX-2 30 Jul 13:18:41 13:21:18 16° 349° (N) 13:23:54 2200.000
SPROUT 30 Jul 13:18:46 13:23:05 62° 106° (ESE) 13:27:23 437.525
DUCHIFAT 1 30 Jul 13:19:52 13:21:13 11° 288° (WNW) 13:22:36 145.980
Cosmos 2491 30 Jul 13:22:04 13:24:28 11° 333° (NNW) 13:26:52 435.465 / 435.565
GONETS M04 30 Jul 13:26:09 13:33:40 34° 73° (ENE) 13:41:13
SO-50 30 Jul 13:30:51 13:35:13 36° 206° (SSW) 13:39:29 436.795
CUTE 1.7 + AOD 2 30 Jul 13:31:20 13:33:54 16° 351° (N) 13:36:28 437.475
Cosmos 2499 30 Jul 13:33:10 13:40:21 31° 71° (ENE) 13:47:11 435.465 / 435.565
RS-15 30 Jul 13:38:01 13:49:43 57° 218° (SW) 14:01:36 29.354- 29.394
HO-68 30 Jul 13:38:20 13:44:51 39° 352° (N) 13:51:22 435.675
GOMX 1 30 Jul 13:40:47 13:44:07 20° 14° (NNE) 13:47:36 467.674
CUBEBUG 1 30 Jul 13:41:38 13:46:01 70° 300° (WNW) 13:50:26 437.445
Oscar 11 30 Jul 13:42:01 13:45:14 21° 335° (NNW) 13:48:26 145.826/435.025
DANDE 30 Jul 13:44:00 13:46:43 88° 73° (ENE) 13:49:20 436.750
CUBEBUG 2 30 Jul 13:44:38 13:48:06 20° 344° (NNW) 13:51:33 437.445
ESTCUBE 1 30 Jul 13:49:06 13:53:31 55° 306° (NW) 13:57:55 437.505/2401.250
VELOX 1 30 Jul 13:50:04 13:54:31 70° 300° (WNW) 13:58:58 145.980
HUMSAT D 30 Jul 13:50:06 13:53:42 27° 323° (NW) 13:57:16 437.325/437.525
AO-7 30 Jul 13:53:30 14:01:56 86° 237° (WSW) 14:10:24 29.400- 29.500
NOAA 18 30 Jul 13:53:55 13:58:44 31° 20° (NNE) 14:03:32 137.9125
LilacSat-2 30 Jul 13:58:45 14:01:16 17° 23° (NNE) 14:03:45 437.200
Oscar 19 30 Jul 13:58:47 14:03:14 29° 271° (W) 14:07:43 437.125/150
M-CUBED/EXP-1 PRIME 30 Jul 14:00:16 14:04:34 42° 329° (NNW) 14:09:00 437.505
ITAMSAT 1 30 Jul 14:00:18 14:05:32 68° 251° (WSW) 14:10:46 435.822/435.867
TISAT 1 30 Jul 14:00:46 14:04:57 50° 103° (ESE) 14:09:08 437.305
AIST 1 30 Jul 14:01:23 14:05:41 78° 295° (WNW) 14:10:02
SEEDS 30 Jul 14:03:40 14:06:06 15° 355° (N) 14:08:31 437.485
Cubesat XI-IV 30 Jul 14:04:32 14:09:08 29° 23° (NNE) 14:13:42 437.490
AO-85 30 Jul 14:06:47 14:10:50 24° 137° (SE) 14:14:42 145.980
Gurwin Techsat 1B 30 Jul 14:08:08 14:13:07 39° 264° (W) 14:18:08 435.225
COMPASS 1 30 Jul 14:08:40 14:11:03 15° 353° (N) 14:13:25 437.405
SWISSCUBE 30 Jul 14:09:03 14:13:09 27° 89° (E) 14:17:13 437.505
HORYU 2 30 Jul 14:13:17 14:17:31 41° 45° (NE) 14:21:45 437.375
DX 1 30 Jul 14:22:04 14:26:23 58° 305° (NW) 14:30:42 434.975-435.025
AUBIESAT-1 30 Jul 14:23:13 14:27:24 38° 332° (NNW) 14:31:42 437.475
DELFI C3 30 Jul 14:25:19 14:27:53 17° 338° (NNW) 14:30:26 145.870
CUTE-I 30 Jul 14:26:42 14:31:25 32° 29° (NNE) 14:36:08 437.470
JAS-2 30 Jul 14:28:37 14:30:59 13° 291° (WNW) 14:33:19 435.910
UKube-1 30 Jul 14:28:42 14:32:59 59° 305° (NW) 14:37:15 .
CUSAT 1 30 Jul 14:29:10 14:31:16 20° 263° (W) 14:33:35 437.405
BEESAT 30 Jul 14:29:59 14:34:19 32° 93° (E) 14:38:37 436.000
Cosmos 2504 30 Jul 14:31:36 14:39:49 41° 333° (NNW) 14:47:38 435.465 / 435.565
AAUSAT CUBESAT 2 30 Jul 14:33:10 14:35:29 15° 357° (N) 14:37:47 437.432
BRITE-PL 30 Jul 14:34:20 14:38:00 28° 36° (NE) 14:41:52 437.365/2234.400
NOAA 15 30 Jul 14:34:32 14:39:16 35° 34° (NE) 14:44:02 137.62
AISAT 30 Jul 14:35:30 14:39:44 44° 312° (NW) 14:43:59 437.250
CINEMA 3 30 Jul 14:37:45 14:41:17 20° 8° (N) 14:44:52 145.822/145.860
MOZHAYETS 4 30 Jul 14:38:25 14:40:56 14° 74° (ENE) 14:43:27
FUNcube-1 30 Jul 14:40:16 14:43:21 18° 349° (N) 14:46:24 145.935
ZACube-1 30 Jul 14:43:15 14:46:20 18° 350° (N) 14:49:23 437.345
50 SAT 30 Jul 14:47:06 14:50:18 29° 315° (NW) 14:53:28 437.505
UWE-3 30 Jul 14:50:49 14:53:57 18° 356° (N) 14:57:04 435.000/436.395/437.385
DOVE 4 30 Jul 14:52:09 14:55:55 24° 24° (NNE) 14:59:52 437.250
CANX-2 30 Jul 14:53:17 14:55:55 16° 12° (NNE) 14:58:33 2200.000
SPROUT 30 Jul 14:54:52 14:59:02 46° 309° (NW) 15:03:11 437.525
ITUPSAT 1 30 Jul 14:55:37 15:00:12 42° 99° (E) 15:04:46 437.325
CUTE 1.7 + AOD 2 30 Jul 15:05:50 15:08:31 17° 14° (NNE) 15:11:12 437.475
YUBILEINY 30 Jul 15:11:04 15:19:07 36° 3° (N) 15:27:09 435.215
SO-50 30 Jul 15:11:27 15:14:44 19° 230° (SW) 15:17:57 436.795
KKS-1 30 Jul 15:13:36 15:16:50 19° 83° (E) 15:20:04 437.445
GOMX 1 30 Jul 15:17:11 15:21:10 32° 38° (NE) 15:25:25 467.674
Oscar 11 30 Jul 15:17:32 15:20:12 16° 359° (N) 15:22:51 145.826/435.025
CUBEBUG 1 30 Jul 15:18:06 15:21:53 29° 323° (NW) 15:25:42 437.445
CUBEBUG 2 30 Jul 15:20:11 15:23:28 19° 7° (N) 15:26:45 437.445
GONETS M04 30 Jul 15:20:44 15:29:23 72° 100° (E) 15:38:08
Cosmos 2499 30 Jul 15:23:43 15:32:18 64° 97° (E) 15:40:23 435.465 / 435.565
HO-68 30 Jul 15:24:50 15:31:28 41° 17° (NNE) 15:38:06 435.675
HUMSAT D 30 Jul 15:25:35 15:28:19 17° 346° (NNW) 15:31:03 437.325/437.525
ESTCUBE 1 30 Jul 15:26:01 15:29:45 26° 328° (NNW) 15:33:28 437.505/2401.250
VELOX 1 30 Jul 15:26:42 15:30:34 30° 323° (NW) 15:34:26 145.980
DANDE 30 Jul 15:27:29 15:29:02 14° 269° (W) 15:30:34 436.750
LilacSat-2 30 Jul 15:31:14 15:34:43 32° 46° (NE) 15:38:14 437.200
NOAA 18 30 Jul 15:33:16 15:38:39 51° 44° (NE) 15:44:02 137.9125
M-CUBED/EXP-1 PRIME 30 Jul 15:34:33 15:38:26 29° 351° (N) 15:42:26 437.505
TISAT 1 30 Jul 15:36:33 15:40:44 54° 305° (NW) 15:44:55 437.305
SEEDS 30 Jul 15:37:49 15:40:35 17° 19° (NNE) 15:43:21 437.485
AIST 1 30 Jul 15:40:08 15:43:55 29° 318° (NW) 15:47:45
ITAMSAT 1 30 Jul 15:41:38 15:45:55 25° 274° (W) 15:50:15 435.822/435.867
STARS 30 Jul 15:42:03 15:45:15 19° 83° (E) 15:48:25 437.465
COMPASS 1 30 Jul 15:42:46 15:45:23 17° 16° (NNE) 15:48:01 437.405
Cubesat XI-IV 30 Jul 15:43:16 15:48:28 51° 47° (NE) 15:53:41 437.490
Oscar 19 30 Jul 15:43:35 15:44:23 10° 296° (WNW) 15:45:12 437.125/150
AO-85 30 Jul 15:45:46 15:50:33 42° 159° (SSE) 15:55:00 145.980
SWISSCUBE 30 Jul 15:46:51 15:51:41 79° 113° (ESE) 15:56:27 437.505
AO-7 30 Jul 15:47:49 15:55:45 44° 263° (W) 16:03:43 29.400- 29.500
HORYU 2 30 Jul 15:49:24 15:53:56 78° 248° (WSW) 15:58:29 437.375
RS-15 30 Jul 15:49:45 16:00:01 34° 247° (WSW) 16:10:22 29.354- 29.394
Gurwin Techsat 1B 30 Jul 15:51:40 15:54:37 15° 289° (WNW) 15:57:35 435.225
AUBIESAT-1 30 Jul 15:57:20 16:01:09 28° 354° (N) 16:05:05 437.475
DX 1 30 Jul 15:58:23 16:02:02 26° 328° (NNW) 16:05:42 434.975-435.025
DELFI C3 30 Jul 15:59:33 16:01:33 14° 1° (N) 16:03:33 145.870
UKube-1 30 Jul 16:04:53 16:08:31 27° 327° (NNW) 16:12:09 .
CUTE-I 30 Jul 16:05:34 16:10:52 61° 53° (NE) 16:16:11 437.470
AAUSAT CUBESAT 2 30 Jul 16:07:02 16:09:46 17° 20° (NNE) 16:12:30 437.432
CUBESAT XI-V 30 Jul 16:07:47 16:10:28 15° 75° (ENE) 16:13:08 437.345
BEESAT 30 Jul 16:07:50 16:12:40 88° 296° (WNW) 16:17:28 436.000
BRITE-PL 30 Jul 16:11:48 16:16:01 67° 60° (ENE) 16:20:31 437.365/2234.400
AISAT 30 Jul 16:12:01 16:15:30 23° 335° (NNW) 16:18:58 437.250
CINEMA 3 30 Jul 16:13:09 16:17:17 28° 32° (NNE) 16:21:31 145.822/145.860
NOAA 15 30 Jul 16:13:23 16:18:37 73° 58° (ENE) 16:23:54 137.62
MOZHAYETS 4 30 Jul 16:14:58 16:19:22 41° 98° (E) 16:23:43
FUNcube-1 30 Jul 16:15:14 16:18:21 18° 12° (NNE) 16:21:27 145.935
ZACube-1 30 Jul 16:18:12 16:21:22 19° 14° (NNE) 16:24:31 437.345
50 SAT 30 Jul 16:20:58 16:23:06 15° 337° (NNW) 16:25:14 437.505
UWE-3 30 Jul 16:25:43 16:29:11 21° 20° (NNE) 16:32:38 435.000/436.395/437.385
CANX-2 30 Jul 16:27:14 16:30:44 25° 35° (NE) 16:34:14 2200.000
Cosmos 2504 30 Jul 16:27:49 16:35:38 35° 3° (N) 16:43:01 435.465 / 435.565
DOVE 4 30 Jul 16:28:22 16:32:47 44° 48° (NE) 16:37:29 437.250
SPROUT 30 Jul 16:30:55 16:34:18 23° 332° (NNW) 16:37:40 437.525
ITUPSAT 1 30 Jul 16:33:35 16:38:23 70° 302° (WNW) 16:43:09 437.325
CUTE 1.7 + AOD 2 30 Jul 16:39:47 16:43:21 26° 37° (NE) 16:46:54 437.475
KKS-1 30 Jul 16:49:53 16:54:21 56° 105° (ESE) 16:58:48 437.445
Oscar 11 30 Jul 16:52:01 16:55:09 20° 22° (NNE) 16:58:16 145.826/435.025
CUBEBUG 1 30 Jul 16:54:13 16:57:13 18° 346° (NNW) 17:00:14 437.445
GOMX 1 30 Jul 16:54:24 16:58:51 75° 62° (ENE) 17:03:38 467.674
CUBEBUG 2 30 Jul 16:55:02 16:58:57 26° 31° (NNE) 17:02:53 437.445
HUMSAT D 30 Jul 17:00:06 17:02:44 16° 9° (N) 17:05:21 437.325/437.525
ESTCUBE 1 30 Jul 17:02:27 17:05:30 18° 352° (N) 17:08:32 437.505/2401.250
VELOX 1 30 Jul 17:02:57 17:06:04 19° 346° (NNW) 17:09:11 145.980
LilacSat-2 30 Jul 17:04:51 17:08:47 87° 240° (WSW) 17:12:44 437.200
Cosmos 2491 30 Jul 17:06:12 17:09:45 13° 34° (NE) 17:13:18 435.465 / 435.565
M-CUBED/EXP-1 PRIME 30 Jul 17:08:18 17:12:09 30° 13° (NNE) 17:16:11 437.505
YUBILEINY 30 Jul 17:09:52 17:18:21 46° 33° (NNE) 17:26:47 435.215
HO-68 30 Jul 17:11:22 17:18:27 62° 43° (NE) 17:25:34 435.675
SEEDS 30 Jul 17:11:41 17:15:22 30° 41° (NE) 17:19:02 437.485
TISAT 1 30 Jul 17:12:20 17:15:49 25° 328° (NNW) 17:19:18 437.305
NOAA 18 30 Jul 17:13:41 17:19:16 73° 249° (WSW) 17:24:53 137.9125
COMPASS 1 30 Jul 17:16:26 17:19:59 28° 39° (NE) 17:23:31 437.405
Cosmos 2499 30 Jul 17:16:57 17:25:38 68° 303° (WNW) 17:33:48 435.465 / 435.565
GONETS M04 30 Jul 17:18:00 17:26:40 62° 308° (NW) 17:35:25
STARS 30 Jul 17:18:07 17:22:33 56° 106° (ESE) 17:26:57 437.465
AIST 1 30 Jul 17:20:02 17:22:54 17° 343° (NNW) 17:25:46
Cubesat XI-IV 30 Jul 17:23:09 17:28:33 70° 251° (WSW) 17:33:57 437.490
SWISSCUBE 30 Jul 17:24:49 17:29:20 42° 315° (NW) 17:33:49 437.505
AO-85 30 Jul 17:25:45 17:30:35 50° 182° (S) 17:35:01 145.980
HORYU 2 30 Jul 17:27:23 17:31:10 26° 271° (W) 17:34:59 437.375
AUBIESAT-1 30 Jul 17:30:56 17:34:49 31° 17° (NNE) 17:38:52 437.475
STRAND 1 30 Jul 17:31:54 17:33:17 11° 66° (ENE) 17:34:39 437.568
DELFI C3 30 Jul 17:32:35 17:35:15 18° 24° (NNE) 17:37:55 145.870
DX 1 30 Jul 17:34:15 17:37:13 18° 351° (N) 17:40:12 434.975-435.025
UKube-1 30 Jul 17:40:37 17:43:34 18° 350° (N) 17:46:30 .
AAUSAT CUBESAT 2 30 Jul 17:40:42 17:44:22 31° 43° (NE) 17:48:01 437.432
CUBESAT XI-V 30 Jul 17:44:38 17:49:04 43° 99° (E) 17:53:29 437.345
AO-7 30 Jul 17:45:14 17:51:04 20° 290° (WNW) 17:56:53 29.400- 29.500
BEESAT 30 Jul 17:45:47 17:50:12 37° 319° (NW) 17:54:34 436.000
CUTE-I 30 Jul 17:45:49 17:51:07 56° 256° (WSW) 17:56:26 437.470
AISAT 30 Jul 17:47:54 17:50:52 18° 358° (N) 17:53:49 437.250
CINEMA 3 30 Jul 17:49:02 17:53:46 57° 55° (NE) 17:58:41 145.822/145.860
FUNcube-1 30 Jul 17:49:39 17:53:33 28° 35° (NE) 17:57:25 145.935
BRITE-PL 30 Jul 17:50:56 17:54:54 38° 264° (W) 17:59:06 437.365/2234.400
MOZHAYETS 4 30 Jul 17:52:15 17:56:51 68° 300° (WNW) 18:01:24
ZACube-1 30 Jul 17:52:40 17:56:38 29° 37° (NE) 18:00:34 437.345
NOAA 15 30 Jul 17:53:47 17:58:48 44° 261° (W) 18:03:51 137.62
50 SAT 30 Jul 17:54:11 17:55:35 12° 0° (N) 17:56:59 437.505
UWE-3 30 Jul 18:00:27 18:04:43 35° 43° (NE) 18:08:59 435.000/436.395/437.385
CANX-2 30 Jul 18:01:52 18:06:04 59° 58° (ENE) 18:10:16 2200.000
RS-15 30 Jul 18:02:31 18:08:19 15° 277° (W) 18:14:10 29.354- 29.394
DOVE 4 30 Jul 18:05:45 18:10:22 74° 251° (WSW) 18:15:20 437.250
SPROUT 30 Jul 18:06:25 18:09:08 17° 355° (N) 18:11:51 437.525
ITUPSAT 1 30 Jul 18:11:33 18:15:47 32° 325° (NW) 18:20:00 437.325
CUTE 1.7 + AOD 2 30 Jul 18:14:29 18:18:43 64° 59° (ENE) 18:22:56 437.475
Cosmos 2504 30 Jul 18:23:11 18:31:20 44° 33° (NNE) 18:38:57 435.465 / 435.565
Oscar 11 30 Jul 18:26:27 18:30:26 36° 45° (NE) 18:34:25 145.826/435.025
KKS-1 30 Jul 18:26:37 18:31:01 52° 308° (NW) 18:35:23 437.445
CUBEBUG 1 30 Jul 18:29:26 18:32:18 17° 9° (N) 18:35:12 437.445
CUBEBUG 2 30 Jul 18:30:17 18:34:54 52° 53° (NE) 18:39:34 437.445
PCSat 30 Jul 18:30:20 18:33:54 18° 116° (ESE) 18:37:28 145.827
GOMX 1 30 Jul 18:33:17 18:37:23 36° 266° (W) 18:41:48 467.674
HUMSAT D 30 Jul 18:33:51 18:37:17 24° 32° (NNE) 18:40:41 437.325/437.525
ESTCUBE 1 30 Jul 18:37:55 18:41:06 19° 16° (NNE) 18:44:18 437.505/2401.250
VELOX 1 30 Jul 18:38:20 18:41:22 18° 10° (N) 18:44:24 145.980
LilacSat-2 30 Jul 18:40:20 18:43:37 25° 270° (W) 18:46:55 437.200
M-CUBED/EXP-1 PRIME 30 Jul 18:41:54 18:46:04 47° 35° (NE) 18:50:29 437.505
SEEDS 30 Jul 18:46:30 18:50:43 78° 66° (ENE) 18:54:57 437.485
TISAT 1 30 Jul 18:47:42 18:50:26 17° 351° (N) 18:53:10 437.305
BEESAT 3 30 Jul 18:50:37 18:53:29 19° 137° (SE) 18:56:21 437.485
COMPASS 1 30 Jul 18:50:58 18:55:08 70° 61° (ENE) 18:59:18 437.405
STARS 30 Jul 18:54:38 18:58:59 51° 308° (NW) 19:03:19 437.465
NOAA 18 30 Jul 18:56:02 19:00:49 29° 271° (W) 19:05:38 137.9125
Cosmos 2491 30 Jul 18:56:44 19:03:28 26° 63° (ENE) 19:10:14 435.465 / 435.565
HO-68 30 Jul 18:59:03 19:06:16 71° 248° (WSW) 19:13:32 435.675
AIST 1 30 Jul 18:59:32 19:02:12 16° 9° (N) 19:04:53
SWISSCUBE 30 Jul 19:02:32 19:06:20 24° 339° (NNW) 19:10:08 437.505
AUBIESAT-1 30 Jul 19:04:31 19:08:44 53° 39° (NE) 19:13:11 437.475
BEESAT 2 30 Jul 19:04:52 19:07:35 18° 135° (SE) 19:10:19 435.950
Cubesat XI-IV 30 Jul 19:05:02 19:09:32 26° 274° (W) 19:14:04 437.490
DELFI C3 30 Jul 19:05:42 19:09:18 34° 47° (NE) 19:12:55 145.870
AO-85 30 Jul 19:06:03 19:10:32 38° 206° (SSW) 19:14:40 145.980
YUBILEINY 30 Jul 19:07:35 19:16:31 77° 62° (ENE) 19:25:24 435.215
O/OREOS (USA 219) 30 Jul 19:09:08 19:11:03 13° 100° (E) 19:12:59 437.305
DX 1 30 Jul 19:09:10 19:12:15 19° 14° (NNE) 19:15:20 434.975-435.025
STRAND 1 30 Jul 19:09:40 19:14:13 30° 90° (E) 19:18:43 437.568
Cosmos 2499 30 Jul 19:12:13 19:20:15 41° 331° (NNW) 19:27:48 435.465 / 435.565
AAUSAT CUBESAT 2 30 Jul 19:15:22 19:19:32 84° 65° (ENE) 19:23:43 437.432
UKube-1 30 Jul 19:15:26 19:18:27 19° 14° (NNE) 19:21:28 .
GONETS M04 30 Jul 19:17:13 19:25:20 40° 338° (NNW) 19:33:32
CUBESAT XI-V 30 Jul 19:22:09 19:26:44 66° 301° (WNW) 19:31:19 437.345
AISAT 30 Jul 19:22:51 19:26:12 21° 21° (NNE) 19:29:32 437.250
BEESAT 30 Jul 19:23:24 19:27:06 23° 343° (NNW) 19:30:48 436.000
FUNcube-1 30 Jul 19:24:43 19:29:15 62° 58° (ENE) 19:33:48 145.935
50 SAT 30 Jul 19:25:54 19:28:05 15° 23° (NNE) 19:30:15 437.505
CINEMA 3 30 Jul 19:26:20 19:31:02 54° 258° (WSW) 19:35:58 145.822/145.860
ZACube-1 30 Jul 19:27:51 19:32:26 66° 59° (ENE) 19:37:00 437.345
CUTE-I 30 Jul 19:28:17 19:32:19 21° 279° (W) 19:36:23 437.470
MOZHAYETS 4 30 Jul 19:29:34 19:33:33 30° 324° (NW) 19:37:31
BRITE-PL 30 Jul 19:32:53 19:34:48 13° 288° (WNW) 19:36:45 437.365/2234.400
UWE-3 30 Jul 19:36:09 19:40:52 85° 67° (ENE) 19:45:36 435.000/436.395/437.385
NOAA 15 30 Jul 19:36:41 19:39:59 17° 285° (WNW) 19:43:17 137.62
CANX-2 30 Jul 19:38:01 19:42:08 45° 260° (W) 19:46:15 2200.000
SPROUT 30 Jul 19:40:53 19:43:53 19° 18° (NNE) 19:46:54 437.525
DOVE 4 30 Jul 19:45:03 19:48:54 25° 276° (W) 19:52:58 437.250
ITUPSAT 1 30 Jul 19:49:03 19:52:39 21° 349° (NNW) 19:56:14 437.325
CUTE 1.7 + AOD 2 30 Jul 19:50:46 19:54:49 41° 262° (W) 19:58:53 437.475
Oscar 11 30 Jul 20:01:59 20:06:21 85° 247° (WSW) 20:10:44 145.826/435.025
KKS-1 30 Jul 20:03:16 20:06:57 25° 331° (NNW) 20:10:38 437.445
CUBEBUG 1 30 Jul 20:03:57 20:07:32 26° 32° (NNE) 20:11:09 437.445
CUBEBUG 2 30 Jul 20:06:53 20:11:35 59° 256° (WSW) 20:16:20 437.445
HUMSAT D 30 Jul 20:08:07 20:12:18 52° 55° (NE) 20:16:28 437.325/437.525
PCSat 30 Jul 20:11:07 20:16:08 39° 140° (SE) 20:21:10 145.827
ESTCUBE 1 30 Jul 20:13:01 20:16:59 31° 39° (NE) 20:20:57 437.505/2401.250
VELOX 1 30 Jul 20:13:05 20:16:49 27° 33° (NNE) 20:20:33 145.980
GOMX 1 30 Jul 20:15:00 20:17:00 13° 291° (WNW) 20:19:02 467.674
M-CUBED/EXP-1 PRIME 30 Jul 20:16:14 20:20:29 75° 239° (WSW) 20:25:04 437.505
Cosmos 2504 30 Jul 20:17:28 20:26:03 76° 62° (ENE) 20:33:59 435.465 / 435.565
TISAT 1 30 Jul 20:22:03 20:24:54 18° 14° (NNE) 20:27:45 437.305
SEEDS 30 Jul 20:23:02 20:26:51 32° 266° (W) 20:30:41 437.485
BEESAT 3 30 Jul 20:26:45 20:30:24 36° 160° (SSE) 20:34:04 437.485
COMPASS 1 30 Jul 20:27:10 20:31:02 36° 264° (W) 20:34:54 437.405
PRISM 30 Jul 20:30:27 20:33:50 24° 90° (E) 20:37:11 437.425
STARS 30 Jul 20:31:05 20:34:44 25° 331° (NNW) 20:38:22 437.465
AIST 1 30 Jul 20:37:48 20:41:20 24° 35° (NE) 20:44:53
AUBIESAT-1 30 Jul 20:38:58 20:43:12 64° 242° (WSW) 20:47:43 437.475
SWISSCUBE 30 Jul 20:39:32 20:43:00 20° 2° (N) 20:46:28 437.505
DELFI C3 30 Jul 20:39:59 20:43:59 80° 250° (WSW) 20:47:58 145.870
BEESAT 2 30 Jul 20:40:57 20:44:36 34° 157° (SSE) 20:48:16 435.950
NOAA 18 30 Jul 20:42:13 20:43:29 11° 296° (WNW) 20:44:45 137.9125
DX 1 30 Jul 20:43:42 20:47:31 30° 38° (NE) 20:51:21 434.975-435.025
O/OREOS (USA 219) 30 Jul 20:45:16 20:49:21 35° 123° (ESE) 20:53:28 437.305
AO-85 30 Jul 20:46:41 20:50:01 19° 230° (SW) 20:53:10 145.980
HO-68 30 Jul 20:48:55 20:55:15 32° 273° (W) 21:01:37 435.675
STRAND 1 30 Jul 20:48:56 20:54:07 82° 114° (ESE) 20:59:15 437.568
UKube-1 30 Jul 20:49:48 20:53:34 30° 37° (NE) 20:57:20 .
Cosmos 2491 30 Jul 20:50:16 20:58:39 55° 90° (E) 21:07:04 435.465 / 435.565
AAUSAT CUBESAT 2 30 Jul 20:51:49 20:55:30 30° 268° (W) 20:59:10 437.432
TIGRISAT 30 Jul 20:55:56 20:57:59 13° 71° (ENE) 21:00:03 435.000
50 SAT 30 Jul 20:57:41 21:00:54 30° 45° (NE) 21:04:07 437.505
AISAT 30 Jul 20:57:45 21:01:51 38° 44° (NE) 21:05:59 437.250
CUBESAT XI-V 30 Jul 20:59:40 21:03:38 29° 324° (NW) 21:07:36 437.345
BEESAT 30 Jul 21:00:13 21:03:43 21° 7° (N) 21:07:14 436.000
FUNcube-1 30 Jul 21:01:17 21:05:43 46° 261° (W) 21:10:10 145.935
ZACube-1 30 Jul 21:04:34 21:08:59 43° 262° (W) 21:13:24 437.345
YUBILEINY 30 Jul 21:04:40 21:13:12 55° 270° (W) 21:21:41 435.215
CINEMA 3 30 Jul 21:05:47 21:09:16 20° 282° (WNW) 21:12:52 145.822/145.860
MOZHAYETS 4 30 Jul 21:06:29 21:09:43 19° 347° (NNW) 21:12:57
Cosmos 2499 30 Jul 21:08:11 21:15:44 34° 1° (N) 21:22:48 435.465 / 435.565
UNISAT 6 30 Jul 21:13:17 21:16:10 16° 76° (ENE) 21:19:00 437.425
UWE-3 30 Jul 21:13:35 21:17:49 33° 268° (W) 21:22:07 435.000/436.395/437.385
SPROUT 30 Jul 21:15:05 21:18:55 32° 41° (NE) 21:22:47 437.525
CANX-2 30 Jul 21:16:38 21:19:05 15° 283° (WNW) 21:21:31 2200.000
GONETS M04 30 Jul 21:16:46 21:24:45 37° 10° (N) 21:32:47
ITUPSAT 1 30 Jul 21:25:42 21:29:18 22° 12° (NNE) 21:32:55 437.325
CUTE 1.7 + AOD 2 30 Jul 21:29:39 21:31:49 14° 285° (WNW) 21:33:58 437.475
AIST 2 30 Jul 21:38:20 21:41:39 23° 141° (SE) 21:44:58 435.215
CUBEBUG 1 30 Jul 21:39:00 21:43:16 56° 55° (NE) 21:47:34 437.445
Oscar 11 30 Jul 21:39:20 21:43:05 27° 270° (W) 21:46:50 145.826/435.025
KKS-1 30 Jul 21:39:22 21:42:27 18° 354° (N) 21:45:32 437.445
HUMSAT D 30 Jul 21:43:47 21:48:01 53° 257° (WSW) 21:52:14 437.325/437.525
CUBEBUG 2 30 Jul 21:45:35 21:49:10 21° 279° (W) 21:52:46 437.445
VELOX 1 30 Jul 21:48:24 21:52:45 60° 56° (NE) 21:57:09 145.980
ESTCUBE 1 30 Jul 21:48:55 21:53:24 76° 62° (ENE) 21:57:56 437.505/2401.250
ANTELSAT 30 Jul 21:51:19 21:55:07 24° 85° (E) 21:58:51 437.575/2403.000
M-CUBED/EXP-1 PRIME 30 Jul 21:52:08 21:55:42 26° 262° (W) 21:59:30 437.505
PCSat 30 Jul 21:53:40 21:59:03 64° 164° (SSE) 22:04:27 145.827
TISAT 1 30 Jul 21:55:56 21:59:35 28° 37° (NE) 22:03:15 437.305
SEEDS 30 Jul 22:02:58 22:03:53 11° 289° (WNW) 22:04:47 437.485
BEESAT 3 30 Jul 22:03:50 22:07:38 44° 183° (S) 22:11:26 437.485
POPSAT HIP 1 30 Jul 22:04:50 22:05:32 10° 70° (ENE) 22:06:14 437.405
PRISM 30 Jul 22:05:38 22:09:45 79° 111° (ESE) 22:13:53 437.425
COMPASS 1 30 Jul 22:06:18 22:07:49 12° 287° (WNW) 22:09:21 437.405
STARS 30 Jul 22:06:59 22:10:01 18° 354° (N) 22:13:03 437.465
Cosmos 2504 30 Jul 22:11:10 22:19:19 54° 270° (W) 22:26:53 435.465 / 435.565
AUBIESAT-1 30 Jul 22:15:08 22:18:29 22° 265° (W) 22:21:59 437.475
AIST 1 30 Jul 22:15:32 22:19:49 55° 59° (ENE) 22:24:07
SWISSCUBE 30 Jul 22:15:45 22:19:42 26° 26° (NNE) 22:23:38 437.505
DELFI C3 30 Jul 22:16:12 22:19:26 23° 271° (W) 22:22:40 145.870
BEESAT 2 30 Jul 22:18:09 22:21:58 44° 180° (S) 22:25:49 435.950
DX 1 30 Jul 22:18:58 22:23:19 74° 60° (ENE) 22:27:42 434.975-435.025
O/OREOS (USA 219) 30 Jul 22:23:56 22:28:26 82° 146° (SSE) 22:32:59 437.305
UKube-1 30 Jul 22:24:53 22:29:12 71° 59° (ENE) 22:33:32 .
QB50P2 30 Jul 22:25:44 22:28:02 14° 76° (ENE) 22:30:20 145.880/145.840
STRAND 1 30 Jul 22:28:17 22:33:07 43° 317° (NW) 22:37:57 437.568
POLYITAN 1 30 Jul 22:28:21 22:30:41 14° 77° (ENE) 22:33:01 437.675
50 SAT 30 Jul 22:30:38 22:34:18 86° 243° (WSW) 22:37:58 437.505
TIGRISAT 30 Jul 22:31:44 22:36:05 36° 94° (E) 22:40:21 435.000
AISAT 30 Jul 22:33:42 22:38:09 82° 248° (WSW) 22:42:38 437.250
BEESAT 30 Jul 22:36:23 22:40:28 28° 30° (NNE) 22:44:32 436.000
CUBESAT XI-V 30 Jul 22:36:47 22:40:00 19° 348° (NNW) 22:43:12 437.345
FUNcube-1 30 Jul 22:40:12 22:43:05 16° 283° (WNW) 22:45:57 145.935
HO-68 30 Jul 22:42:17 22:45:36 13° 300° (WNW) 22:48:56 435.675
MOZHAYETS 4 30 Jul 22:42:28 22:45:39 19° 11° (N) 22:48:50
ZACube-1 30 Jul 22:43:45 22:46:26 15° 285° (WNW) 22:49:09 437.345
Cosmos 2491 30 Jul 22:46:38 22:55:23 76° 297° (WNW) 23:04:12 435.465 / 435.565
UNISAT 6 30 Jul 22:49:31 22:54:04 45° 99° (E) 22:58:30 437.425
SPROUT 30 Jul 22:50:13 22:54:32 81° 64° (ENE) 22:58:54 437.525
UWE-3 30 Jul 22:54:02 22:55:44 12° 291° (WNW) 22:57:28 435.000/436.395/437.385
YUBILEINY 30 Jul 23:01:27 23:08:18 26° 298° (WNW) 23:15:07 435.215
ITUPSAT 1 30 Jul 23:01:55 23:06:11 33° 36° (NE) 23:10:27 437.325
Cosmos 2499 30 Jul 23:03:19 23:11:10 42° 31° (NNE) 23:18:26 435.465 / 435.565
NANOSAT C BR1 30 Jul 23:07:12 23:10:32 21° 86° (E) 23:13:51 145.865
BUGSAT 1 30 Jul 23:07:17 23:09:36 14° 77° (ENE) 23:11:55 437.445
DUCHIFAT 1 30 Jul 23:09:26 23:12:45 21° 85° (E) 23:16:03 145.980
KKS-1 30 Jul 23:14:33 23:17:52 21° 18° (NNE) 23:21:11 437.445
GONETS M04 30 Jul 23:15:17 23:23:49 50° 40° (NE) 23:32:22
CUBEBUG 1 30 Jul 23:15:29 23:19:43 49° 258° (WSW) 23:24:00 437.445
AIST 2 30 Jul 23:15:32 23:19:27 40° 163° (SSE) 23:23:22 435.215
HUMSAT D 30 Jul 23:21:43 23:24:36 17° 280° (W) 23:27:28 437.325/437.525
VELOX 1 30 Jul 23:25:10 23:29:26 46° 258° (WSW) 23:33:44 145.980
ESTCUBE 1 30 Jul 23:26:27 23:30:37 36° 264° (W) 23:34:49 437.505/2401.250
ANTELSAT 30 Jul 23:27:55 23:32:39 70° 108° (ESE) 23:37:16 437.575/2403.000
TISAT 1 30 Jul 23:30:34 23:34:48 69° 60° (ENE) 23:39:04 437.305
JAS-2 30 Jul 23:30:51 23:34:40 20° 80° (E) 23:38:35 435.910
QB50P1 30 Jul 23:31:59 23:35:46 29° 92° (E) 23:39:33 145.935-145.965
PCSat 30 Jul 23:36:52 23:42:18 69° 188° (S) 23:47:43 145.827
POPSAT HIP 1 30 Jul 23:38:50 23:42:42 31° 93° (E) 23:46:34 437.405
PRISM 30 Jul 23:41:08 23:44:54 36° 315° (NW) 23:48:42 437.425
BEESAT 3 30 Jul 23:41:15 23:44:50 32° 205° (SSW) 23:48:24 437.485
STARS 30 Jul 23:41:58 23:45:13 20° 17° (NNE) 23:48:29 437.465
SWISSCUBE 30 Jul 23:52:11 23:56:49 49° 49° (NE) 00:01:26 437.505
AIST 1 30 Jul 23:53:17 23:57:29 47° 262° (W) 00:01:40
BEESAT 2 30 Jul 23:55:41 23:59:20 35° 203° (SSW) 00:03:01 435.950
DX 1 30 Jul 23:55:51 23:59:53 36° 262° (W) 00:03:58 434.975-435.025
QB50P2 31 Jul 00:00:51 00:04:59 42° 99° (E) 00:09:05 145.880/145.840
UKube-1 31 Jul 00:01:32 00:05:35 37° 262° (W) 00:09:40 .
POLYITAN 1 31 Jul 00:03:29 00:07:38 42° 99° (E) 00:11:45 437.675
O/OREOS (USA 219) 31 Jul 00:03:35 00:08:05 65° 351° (N) 00:12:36 437.305
Cosmos 2504 31 Jul 00:04:38 00:11:04 25° 297° (WNW) 00:17:11 435.465 / 435.565
50 SAT 31 Jul 00:05:28 00:08:27 23° 269° (W) 00:11:26 437.505
STRAND 1 31 Jul 00:07:17 00:11:29 26° 341° (NNW) 00:15:39 437.568
TIGRISAT 31 Jul 00:08:29 00:13:13 79° 298° (WNW) 00:17:50 435.000
AISAT 31 Jul 00:11:29 00:15:16 27° 270° (W) 00:19:04 437.250
CUBESAT XI-V 31 Jul 00:12:58 00:16:09 19° 11° (NNE) 00:19:20 437.345
BEESAT 31 Jul 00:12:58 00:17:40 57° 53° (NE) 00:22:23 436.000
Oscar 19 31 Jul 00:14:58 00:18:11 16° 75° (ENE) 00:21:23 437.125/150
MOZHAYETS 4 31 Jul 00:17:52 00:21:47 28° 34° (NE) 00:25:42
UNISAT 6 31 Jul 00:26:22 00:31:02 64° 302° (WNW) 00:35:37 437.425
SPROUT 31 Jul 00:27:03 00:30:56 32° 266° (W) 00:34:53 437.525
Gurwin Techsat 1B 31 Jul 00:29:17 00:31:50 13° 69° (ENE) 00:34:22 435.225
ITUPSAT 1 31 Jul 00:38:48 00:43:36 73° 60° (ENE) 00:48:25 437.325
BUGSAT 1 31 Jul 00:42:00 00:46:05 43° 100° (E) 00:50:10 437.445
NANOSAT C BR1 31 Jul 00:42:44 00:47:02 67° 108° (ESE) 00:51:19 145.865
DUCHIFAT 1 31 Jul 00:44:56 00:49:14 66° 109° (ESE) 00:53:30 145.980
Cosmos 2491 31 Jul 00:45:19 00:53:37 45° 327° (NNW) 01:01:58 435.465 / 435.565
KKS-1 31 Jul 00:49:30 00:53:33 34° 41° (NE) 00:57:38 437.445
AIST 2 31 Jul 00:53:31 00:57:31 45° 186° (S) 01:01:30 435.215
CUBEBUG 1 31 Jul 00:54:18 00:57:03 16° 281° (W) 00:59:49 437.445
Cosmos 2499 31 Jul 00:57:22 01:05:39 73° 60° (ENE) 01:13:15 435.465 / 435.565
YUBILEINY 31 Jul 00:58:16 01:01:57 13° 327° (NNW) 01:05:37 435.215
VELOX 1 31 Jul 01:04:20 01:07:00 16° 281° (WNW) 01:09:42 145.980
ANTELSAT 31 Jul 01:04:47 01:09:18 45° 311° (NW) 01:13:42 437.575/2403.000
TISAT 1 31 Jul 01:06:48 01:10:47 38° 262° (W) 01:14:48 437.305
ESTCUBE 1 31 Jul 01:06:52 01:08:46 12° 287° (WNW) 01:10:41 437.505/2401.250
QB50P1 31 Jul 01:07:44 01:12:04 89° 311° (NW) 01:16:24 145.935-145.965
GONETS M04 31 Jul 01:12:49 01:21:41 88° 72° (ENE) 01:30:34
POPSAT HIP 1 31 Jul 01:14:37 01:18:58 84° 295° (WNW) 01:23:18 437.405
JAS-2 31 Jul 01:15:53 01:21:01 55° 104° (ESE) 01:26:23 435.910
PRISM 31 Jul 01:16:31 01:19:27 19° 337° (NNW) 01:22:24 437.425
STARS 31 Jul 01:16:42 01:20:42 34° 40° (NE) 01:24:44 437.465
BEESAT 3 31 Jul 01:19:09 01:21:38 16° 228° (SW) 01:24:07 437.485
PCSat 31 Jul 01:20:08 01:25:22 48° 212° (SSW) 01:30:34 145.827
SWISSCUBE 31 Jul 01:29:51 01:34:38 64° 252° (WSW) 01:39:25 437.505
AIST 1 31 Jul 01:31:39 01:34:13 15° 285° (WNW) 01:36:47
BEESAT 2 31 Jul 01:33:37 01:36:22 18° 225° (SW) 01:39:07 435.950
DX 1 31 Jul 01:35:36 01:37:22 12° 286° (WNW) 01:39:09 434.975-435.025
QB50P2 31 Jul 01:36:45 01:41:03 63° 301° (WNW) 01:45:18 145.880/145.840
AO-7 31 Jul 01:38:22 01:43:11 16° 62° (ENE) 01:47:59 29.400- 29.500
POLYITAN 1 31 Jul 01:39:23 01:43:41 63° 302° (WNW) 01:47:57 437.675
UKube-1 31 Jul 01:40:59 01:42:53 13° 285° (WNW) 01:44:47 .
O/OREOS (USA 219) 31 Jul 01:43:22 01:47:53 69° 15° (NNE) 01:52:26 437.305
TIGRISAT 31 Jul 01:45:19 01:49:32 33° 320° (NW) 01:53:41 435.000
STRAND 1 31 Jul 01:45:33 01:49:31 23° 5° (N) 01:53:27 437.568
CUBESAT XI-V 31 Jul 01:48:34 01:52:29 28° 35° (NE) 01:56:25 437.345
BEESAT 31 Jul 01:50:54 01:55:37 53° 256° (WSW) 02:00:21 436.000
MOZHAYETS 4 31 Jul 01:53:50 01:58:25 61° 57° (ENE) 02:02:59
Oscar 19 31 Jul 01:53:55 01:58:52 43° 99° (E) 02:03:50 437.125/150
Cosmos 2504 31 Jul 01:58:22 02:01:27 13° 325° (NW) 02:04:30 435.465 / 435.565
ITAMSAT 1 31 Jul 01:58:27 02:02:04 18° 79° (ENE) 02:05:39 435.822/435.867
UNISAT 6 31 Jul 02:03:11 02:07:14 29° 325° (NW) 02:11:14 437.425
SPROUT 31 Jul 02:07:15 02:08:17 11° 289° (WNW) 02:09:18 437.525
Gurwin Techsat 1B 31 Jul 02:08:32 02:13:26 35° 93° (E) 02:18:19 435.225
ITUPSAT 1 31 Jul 02:17:16 02:21:49 41° 262° (W) 02:26:23 437.325
BUGSAT 1 31 Jul 02:17:28 02:21:42 62° 302° (WNW) 02:25:55 437.445
NANOSAT C BR1 31 Jul 02:18:38 02:22:43 43° 310° (NW) 02:26:47 145.865
DUCHIFAT 1 31 Jul 02:20:48 02:24:52 43° 310° (NW) 02:28:56 145.980
KKS-1 31 Jul 02:25:20 02:29:50 85° 64° (ENE) 02:34:22 437.445
AIST 2 31 Jul 02:31:46 02:35:27 31° 210° (SSW) 02:39:08 435.215
ANTELSAT 31 Jul 02:41:30 02:45:14 24° 334° (NNW) 02:48:56 437.575/2403.000
QB50P1 31 Jul 02:43:42 02:47:36 34° 317° (NW) 02:51:29 145.935-145.965
Cosmos 2491 31 Jul 02:44:58 02:52:53 36° 358° (N) 03:00:49 435.465 / 435.565
TISAT 1 31 Jul 02:45:46 02:47:39 13° 285° (WNW) 02:49:32 437.305
POPSAT HIP 1 31 Jul 02:50:35 02:54:27 32° 318° (NW) 02:58:18 437.405
Cosmos 2499 31 Jul 02:50:50 02:58:44 56° 268° (W) 03:06:02 435.465 / 435.565
PRISM 31 Jul 02:51:12 02:53:38 16° 1° (N) 02:56:07 437.425
STARS 31 Jul 02:52:18 02:56:45 84° 63° (ENE) 03:01:15 437.465
JAS-2 31 Jul 03:01:16 03:06:22 59° 308° (NW) 03:11:41 435.910
PCSat 31 Jul 03:03:35 03:07:52 24° 236° (WSW) 03:12:07 145.827
DANDE 31 Jul 03:08:48 03:11:23 18° 94° (E) 03:13:37 436.750
SWISSCUBE 31 Jul 03:09:34 03:13:19 22° 275° (W) 03:17:05 437.505
GONETS M04 31 Jul 03:09:49 03:18:01 46° 276° (W) 03:26:15
QB50P2 31 Jul 03:12:44 03:16:22 27° 324° (NW) 03:20:00 145.880/145.840
POLYITAN 1 31 Jul 03:15:21 03:19:00 27° 324° (NW) 03:22:38 437.675
TIGRISAT 31 Jul 03:21:49 03:25:16 21° 343° (NNW) 03:28:41 435.000
O/OREOS (USA 219) 31 Jul 03:22:56 03:27:26 69° 219° (SW) 03:31:58 437.305
STRAND 1 31 Jul 03:23:10 03:27:36 30° 29° (NNE) 03:32:03 437.568
CUBESAT XI-V 31 Jul 03:24:48 03:29:22 63° 58° (ENE) 03:33:56 437.345
HORYU 2 31 Jul 03:27:43 03:28:22 10° 70° (ENE) 03:29:01 437.375
BEESAT 31 Jul 03:31:04 03:34:28 19° 279° (W) 03:37:52 436.000
AO-7 31 Jul 03:31:19 03:38:55 36° 90° (E) 03:46:28 29.400- 29.500
MOZHAYETS 4 31 Jul 03:31:20 03:35:48 47° 260° (W) 03:40:17
Oscar 19 31 Jul 03:33:24 03:38:35 73° 302° (WNW) 03:43:45 437.125/150
ITAMSAT 1 31 Jul 03:37:41 03:42:47 49° 102° (ESE) 03:47:50 435.822/435.867
UNISAT 6 31 Jul 03:39:34 03:42:55 19° 348° (NNW) 03:46:13 437.425
CUSAT 1 31 Jul 03:47:05 03:49:52 52° 109° (ESE) 03:52:26 437.405
Gurwin Techsat 1B 31 Jul 03:48:37 03:54:00 89° 299° (WNW) 03:59:22 435.225
BUGSAT 1 31 Jul 03:53:01 03:56:35 26° 324° (NW) 04:00:09 437.445
NANOSAT C BR1 31 Jul 03:54:27 03:57:44 22° 333° (NNW) 04:01:01 145.865
DUCHIFAT 1 31 Jul 03:56:34 03:59:51 22° 333° (NNW) 04:03:08 145.980
ITUPSAT 1 31 Jul 03:58:20 04:00:59 14° 285° (WNW) 04:03:38 437.325
KKS-1 31 Jul 04:02:53 04:06:54 32° 266° (W) 04:10:58 437.445
BRITE-PL 31 Jul 04:02:57 04:03:26 10° 67° (ENE) 04:03:55 437.365/2234.400
AIST 2 31 Jul 04:10:39 04:12:57 15° 232° (SW) 04:15:16 435.215
NOAA 15 31 Jul 04:15:16 04:16:21 11° 65° (ENE) 04:17:26 137.62
ANTELSAT 31 Jul 04:17:34 04:20:47 19° 358° (N) 04:23:59 437.575/2403.000
QB50P1 31 Jul 04:19:27 04:22:30 19° 340° (NNW) 04:25:34 145.935-145.965
RS-15 31 Jul 04:23:57 04:31:01 18° 89° (E) 04:38:13 29.354- 29.394
PRISM 31 Jul 04:24:53 04:27:52 20° 23° (NNE) 04:30:50 437.425
POPSAT HIP 1 31 Jul 04:26:19 04:29:20 19° 341° (NNW) 04:32:22 437.405
STARS 31 Jul 04:29:36 04:33:36 32° 266° (W) 04:37:38 437.465
GOMX 1 31 Jul 04:41:46 04:43:41 12° 68° (ENE) 04:45:37 467.674
Cosmos 2491 31 Jul 04:43:58 04:52:13 43° 29° (NNE) 05:00:29 435.465 / 435.565
Cosmos 2499 31 Jul 04:44:04 04:50:19 25° 295° (WNW) 04:56:13 435.465 / 435.565
YUBILEINY 31 Jul 04:44:21 04:47:08 12° 27° (NNE) 04:49:54 435.215
JAS-2 31 Jul 04:46:25 04:50:54 30° 333° (NNW) 04:55:29 435.910
QB50P2 31 Jul 04:48:20 04:51:11 17° 347° (NNW) 04:54:01 145.880/145.840
DANDE 31 Jul 04:50:07 04:53:52 82° 114° (ESE) 04:56:50 436.750
POLYITAN 1 31 Jul 04:50:56 04:53:48 17° 348° (NNW) 04:56:39 437.675
TIGRISAT 31 Jul 04:57:28 05:00:44 19° 7° (N) 05:03:58 435.000
STRAND 1 31 Jul 05:01:08 05:06:11 58° 52° (NE) 05:11:15 437.568
HORYU 2 31 Jul 05:02:24 05:06:25 30° 93° (E) 05:10:24 437.375
O/OREOS (USA 219) 31 Jul 05:02:30 05:06:21 28° 242° (WSW) 05:10:13 437.305
CUBESAT XI-V 31 Jul 05:02:34 05:07:00 45° 261° (W) 05:11:28 437.345
GONETS M04 31 Jul 05:06:37 05:12:48 22° 304° (NW) 05:19:01
MOZHAYETS 4 31 Jul 05:11:11 05:14:07 16° 283° (WNW) 05:17:02
Oscar 19 31 Jul 05:12:50 05:17:29 35° 325° (NW) 05:22:08 437.125/150
UNISAT 6 31 Jul 05:15:03 05:18:23 20° 12° (NNE) 05:21:43 437.425
ITAMSAT 1 31 Jul 05:17:20 05:22:32 66° 305° (NW) 05:27:42 435.822/435.867
NOAA 18 31 Jul 05:20:57 05:24:50 19° 78° (ENE) 05:28:42 137.9125
AO-7 31 Jul 05:24:39 05:33:05 74° 117° (ESE) 05:41:27 29.400- 29.500
Cubesat XI-IV 31 Jul 05:25:33 05:29:27 20° 79° (E) 05:33:21 437.490
BUGSAT 1 31 Jul 05:28:12 05:30:57 17° 347° (NNW) 05:33:44 437.445
Gurwin Techsat 1B 31 Jul 05:28:43 05:33:42 41° 320° (NW) 05:38:39 435.225
CUSAT 1 31 Jul 05:29:39 05:32:04 26° 312° (NW) 05:34:22 437.405
NANOSAT C BR1 31 Jul 05:29:41 05:32:20 16° 356° (N) 05:35:01 145.865
DUCHIFAT 1 31 Jul 05:31:46 05:34:25 16° 356° (N) 05:37:05 145.980
BRITE-PL 31 Jul 05:39:23 05:43:29 29° 90° (E) 05:47:51 437.365/2234.400
KKS-1 31 Jul 05:43:48 05:44:55 11° 289° (WNW) 05:46:02 437.445
CUTE-I 31 Jul 05:47:42 05:52:05 25° 85° (E) 05:56:27 437.470
DOVE 4 31 Jul 05:49:39 05:53:05 18° 76° (ENE) 05:56:36 437.250
ANTELSAT 31 Jul 05:52:42 05:56:18 22° 21° (NNE) 05:59:52 437.575/2403.000
NOAA 15 31 Jul 05:53:24 05:57:59 29° 89° (E) 06:02:34 137.62
QB50P1 31 Jul 05:54:26 05:57:07 16° 3° (N) 05:59:47 145.935-145.965
LilacSat-2 31 Jul 05:58:28 06:01:36 22° 88° (E) 06:04:43 437.200
PRISM 31 Jul 05:58:37 06:02:25 38° 46° (NE) 06:06:13 437.425
POPSAT HIP 1 31 Jul 06:01:14 06:03:56 16° 5° (N) 06:06:38 437.405
STARS 31 Jul 06:10:16 06:11:23 11° 289° (WNW) 06:12:31 437.465
HO-68 31 Jul 06:10:35 06:14:49 16° 65° (ENE) 06:19:02 435.675
GOMX 1 31 Jul 06:18:50 06:23:16 33° 91° (E) 06:27:58 467.674
QB50P2 31 Jul 06:22:59 06:25:47 17° 11° (N) 06:28:34 145.880/145.840
POLYITAN 1 31 Jul 06:25:35 06:28:24 17° 11° (N) 06:31:13 437.675
RS-15 31 Jul 06:29:20 06:39:44 39° 119° (ESE) 06:50:32 29.354- 29.394
JAS-2 31 Jul 06:30:52 06:34:56 23° 358° (N) 06:38:59 435.910
TIGRISAT 31 Jul 06:32:25 06:36:18 26° 30° (NNE) 06:40:11 435.000
DANDE 31 Jul 06:34:00 06:36:56 25° 315° (NW) 06:39:25 436.750
YUBILEINY 31 Jul 06:34:13 06:40:31 23° 56° (ENE) 06:46:49 435.215
Cosmos 2499 31 Jul 06:37:45 06:40:32 12° 323° (NW) 06:43:16 435.465 / 435.565
HORYU 2 31 Jul 06:38:59 06:43:31 89° 299° (WNW) 06:48:02 437.375
STRAND 1 31 Jul 06:40:26 06:45:31 57° 255° (WSW) 06:50:36 437.568
Cosmos 2491 31 Jul 06:41:49 06:50:36 71° 59° (ENE) 06:59:23 435.465 / 435.565
CUBESAT XI-V 31 Jul 06:42:48 06:45:34 16° 284° (WNW) 06:48:22 437.345
UNISAT 6 31 Jul 06:49:59 06:54:03 29° 35° (NE) 06:58:06 437.425
Oscar 19 31 Jul 06:51:46 06:55:49 24° 349° (N) 06:59:52 437.125/150
ITAMSAT 1 31 Jul 06:56:52 07:01:30 33° 329° (NNW) 07:06:07 435.822/435.867
NOAA 18 31 Jul 07:01:26 07:06:52 49° 102° (ESE) 07:12:14 137.9125
BUGSAT 1 31 Jul 07:02:26 07:05:08 17° 11° (N) 07:07:51 437.445
GONETS M04 31 Jul 07:03:40 07:06:12 12° 333° (NNW) 07:08:45
NANOSAT C BR1 31 Jul 07:03:53 07:06:54 19° 20° (NNE) 07:09:55 145.865
Cubesat XI-IV 31 Jul 07:05:29 07:10:46 53° 103° (ESE) 07:16:00 437.490
DUCHIFAT 1 31 Jul 07:05:56 07:08:57 19° 20° (NNE) 07:11:57 145.980
CINEMA 3 31 Jul 07:06:05 07:10:00 22° 81° (E) 07:13:56 145.822/145.860
Gurwin Techsat 1B 31 Jul 07:08:25 07:12:45 26° 344° (NNW) 07:17:04 435.225
CANX-2 31 Jul 07:08:31 07:11:25 18° 81° (E) 07:14:17 2200.000
UWE-3 31 Jul 07:13:18 07:13:54 10° 66° (ENE) 07:14:29 435.000/436.395/437.385
CUSAT 1 31 Jul 07:14:27 07:15:01 10° 339° (NNW) 07:15:35 437.405
AO-7 31 Jul 07:17:42 07:25:59 66° 323° (NW) 07:34:13 29.400- 29.500
BRITE-PL 31 Jul 07:17:56 07:22:35 84° 112° (ESE) 07:27:38 437.365/2234.400
SO-50 31 Jul 07:18:47 07:21:20 14° 123° (ESE) 07:23:53 436.795
CUTE 1.7 + AOD 2 31 Jul 07:20:59 07:24:03 19° 82° (E) 07:27:05 437.475
Cosmos 2504 31 Jul 07:24:36 07:30:09 19° 52° (NE) 07:35:33 435.465 / 435.565
DOVE 4 31 Jul 07:27:03 07:31:57 47° 99° (E) 07:37:02 437.250
CUTE-I 31 Jul 07:27:46 07:33:09 66° 109° (ESE) 07:38:28 437.470
ANTELSAT 31 Jul 07:27:47 07:32:08 38° 44° (NE) 07:36:29 437.575/2403.000
QB50P1 31 Jul 07:28:30 07:31:46 21° 26° (NNE) 07:35:02 145.935-145.965
LilacSat-2 31 Jul 07:32:36 07:36:31 78° 110° (ESE) 07:40:24 437.200
NOAA 15 31 Jul 07:33:15 07:38:34 77° 113° (ESE) 07:43:51 137.62
PRISM 31 Jul 07:33:30 07:37:35 75° 248° (WSW) 07:41:42 437.425
POPSAT HIP 1 31 Jul 07:35:17 07:38:37 22° 28° (NNE) 07:41:57 437.405
CUBEBUG 2 31 Jul 07:43:19 07:46:35 18° 78° (ENE) 07:49:49 437.445
SEEDS 31 Jul 07:51:45 07:55:08 23° 87° (E) 07:58:29 437.485
COMPASS 1 31 Jul 07:55:07 07:58:14 20° 84° (E) 08:01:19 437.405
QB50P2 31 Jul 07:56:59 08:00:33 26° 34° (NE) 08:04:07 145.880/145.840
GOMX 1 31 Jul 07:57:00 08:01:56 89° 117° (ESE) 08:07:11 467.674
HO-68 31 Jul 07:58:15 08:04:54 37° 92° (E) 08:11:30 435.675
POLYITAN 1 31 Jul 07:59:36 08:03:11 26° 34° (NE) 08:06:46 437.675
TIGRISAT 31 Jul 08:07:45 08:12:21 52° 53° (NE) 08:16:56 435.000
JAS-2 31 Jul 08:14:27 08:18:54 29° 24° (NNE) 08:23:19 435.910
HORYU 2 31 Jul 08:15:42 08:19:48 36° 319° (NW) 08:23:54 437.375
AAUSAT CUBESAT 2 31 Jul 08:18:49 08:22:11 23° 88° (E) 08:25:33 437.432
DANDE 31 Jul 08:19:39 08:20:42 11° 340° (NNW) 08:21:41 436.750
STRAND 1 31 Jul 08:21:56 08:25:47 21° 278° (W) 08:29:40 437.568
UNISAT 6 31 Jul 08:25:35 08:30:15 64° 58° (ENE) 08:34:56 437.425
YUBILEINY 31 Jul 08:27:02 08:35:17 47° 84° (E) 08:43:35 435.215
Oscar 19 31 Jul 08:29:53 08:33:57 24° 13° (NNE) 08:38:02 437.125/150
FUNcube-1 31 Jul 08:34:41 08:38:03 20° 82° (E) 08:41:20 145.935
ITAMSAT 1 31 Jul 08:35:50 08:39:56 24° 353° (N) 08:44:02 435.822/435.867
BUGSAT 1 31 Jul 08:36:02 08:39:29 25° 34° (NNE) 08:42:58 437.445
NANOSAT C BR1 31 Jul 08:37:55 08:41:45 33° 43° (NE) 08:45:38 145.865
ZACube-1 31 Jul 08:38:10 08:41:40 21° 83° (E) 08:45:07 437.345
RS-15 31 Jul 08:38:46 08:50:22 62° 150° (SSE) 09:02:23 29.354- 29.394
Cosmos 2491 31 Jul 08:38:59 08:47:31 60° 267° (W) 08:56:04 435.465 / 435.565
DUCHIFAT 1 31 Jul 08:39:55 08:43:46 33° 42° (NE) 08:47:37 145.980
NOAA 18 31 Jul 08:42:18 08:47:52 71° 305° (NW) 08:53:24 137.9125
CINEMA 3 31 Jul 08:43:06 08:48:05 61° 104° (ESE) 08:53:06 145.822/145.860
CANX-2 31 Jul 08:44:01 08:48:12 55° 104° (ESE) 08:52:21 2200.000
Cubesat XI-IV 31 Jul 08:45:45 08:51:06 64° 306° (NW) 08:56:23 437.490
Gurwin Techsat 1B 31 Jul 08:47:19 08:51:31 24° 8° (N) 08:55:43 435.225
UWE-3 31 Jul 08:47:49 08:51:56 29° 89° (E) 08:55:57 435.000/436.395/437.385
SO-50 31 Jul 08:56:27 09:00:40 30° 146° (SE) 09:04:50 436.795
CUTE 1.7 + AOD 2 31 Jul 08:56:32 09:00:45 60° 105° (ESE) 09:04:56 437.475
BRITE-PL 31 Jul 08:56:39 09:00:55 39° 314° (NW) 09:05:29 437.365/2234.400
QB50P1 31 Jul 09:02:45 09:06:49 42° 49° (NE) 09:10:53 145.935-145.965
ANTELSAT 31 Jul 09:03:51 09:08:37 87° 249° (WSW) 09:13:22 437.575/2403.000
DOVE 4 31 Jul 09:04:55 09:09:55 67° 301° (WNW) 09:15:07 437.250
LilacSat-2 31 Jul 09:07:06 09:10:39 34° 312° (NW) 09:14:11 437.200
CUTE-I 31 Jul 09:08:00 09:13:14 53° 311° (NW) 09:18:26 437.470
POPSAT HIP 1 31 Jul 09:09:36 09:13:42 45° 50° (NE) 09:17:50 437.405
AO-7 31 Jul 09:10:06 09:18:02 49° 350° (N) 09:25:57 29.400- 29.500
PRISM 31 Jul 09:10:18 09:13:34 23° 271° (W) 09:16:52 437.425
Oscar 11 31 Jul 09:10:51 09:14:41 29° 91° (E) 09:18:29 145.826/435.025
HUMSAT D 31 Jul 09:13:12 09:15:34 14° 77° (ENE) 09:17:54 437.325/437.525
NOAA 15 31 Jul 09:13:13 09:18:14 46° 316° (NW) 09:23:16 137.62
Cosmos 2504 31 Jul 09:13:27 09:21:22 39° 79° (E) 09:28:59 435.465 / 435.565
M-CUBED/EXP-1 PRIME 31 Jul 09:17:04 09:19:05 12° 83° (E) 09:21:05 437.505
CUBEBUG 2 31 Jul 09:19:37 09:24:18 51° 101° (E) 09:28:53 437.445
